Welcome to mirrors.dotsrc.org

All our mirrors of open source software are available via http, https, ftp and an onion service. More information about our mirrors including statistics and contact information is available on our mirror info pages.

For information about dotsrc.org and our other services please go to our website.

Index of /pub/parrot/pool/main/b/

File Name  ↓ File Size  ↓ Date  ↓ 
Parent directory/--
batctl/-2022-05-13 20:29:16
bytecode-viewer/-2022-05-10 12:33:56
brltty/-2022-05-04 00:33:53
bash/-2022-04-19 17:32:56
bashfuscator/-2022-04-06 15:12:40
base-files/-2022-04-06 15:12:40
burpsuite/-2022-03-23 13:04:16
bind9/-2022-03-23 00:34:03
bible-kjv/-2022-03-17 13:43:46
bpfcc/-2022-03-15 14:25:28
bpfmon/-2022-03-15 14:25:01
btop/-2022-03-15 14:25:01
barrier/-2022-03-15 14:25:00
bird2/-2022-03-15 14:25:00
bookworm/-2022-03-15 14:25:00
balloon/-2022-03-15 14:25:00
bepasty/-2022-03-15 14:13:02
bitcoin/-2022-03-15 14:07:58
babel-minify/-2022-03-15 14:07:44
backintime/-2022-03-15 14:04:38
bluesnarfer/-2022-03-15 14:04:38
bluez/-2022-03-15 14:04:38
badger/-2022-03-15 14:04:38
bloodhound/-2022-03-15 14:04:38
botan/-2022-03-15 14:04:38
briar-desktop/-2022-02-26 00:23:28
bing-ip2hosts/-2022-02-23 14:44:53
binutils/-2022-02-23 14:44:53
beef-xss/-2022-02-23 14:44:53
browserpass/-2021-12-29 20:14:05
busybox/-2021-12-29 20:13:19
blt/-2021-12-29 20:13:01
bluez-qt/-2021-12-29 20:09:04
basemap/-2021-12-29 20:08:03
broker/-2021-12-29 20:07:30
brotli/-2021-12-29 20:07:30
babeltrace2/-2021-12-29 20:07:30
btrfs-progs/-2021-12-29 20:07:30
brian/-2021-12-29 20:07:29
bmtk/-2021-12-29 20:07:29
brial/-2021-12-29 20:07:29
bornagain/-2021-12-29 20:07:29
breezy/-2021-12-29 20:07:29
bottleneck/-2021-12-29 20:07:29
bcolz/-2021-12-29 20:07:28
blist/-2021-12-29 20:07:28
biosig/-2021-12-29 20:07:28
bladerf/-2021-12-29 20:07:28
bitstruct/-2021-12-29 20:07:28
beancount/-2021-12-29 20:07:28
basix/-2021-12-29 20:07:27
ball/-2021-12-29 20:07:27
babeltrace/-2021-12-29 20:07:27
brlaser/-2021-12-29 20:06:59
bgw-replstatus/-2021-12-29 20:06:48
breeze-plymouth/-2021-12-29 20:06:41
bsdmainutils/-2021-12-29 20:04:23
brasero/-2021-12-29 20:04:21
brisk-menu/-2021-12-29 20:03:19
biosquid/-2021-12-29 19:57:40
brise/-2021-12-29 19:54:58
budgie-desktop/-2021-12-29 19:54:46
barada-pam/-2021-12-29 19:53:17
beast-mcmc/-2021-12-29 19:52:19
bind9-libs/-2021-12-29 19:51:02
baloo-kf5/-2021-12-29 19:50:08
baloo-widgets/-2021-12-29 19:50:08
bear/-2021-12-29 19:44:21
bzip2/-2021-12-29 19:42:46
bulletml/-2021-12-29 19:42:46
bzrtp/-2021-12-29 19:42:46
bwa/-2021-12-29 19:42:46
bullet/-2021-12-29 19:42:45
blackbox/-2021-12-29 19:42:44
boxfort/-2021-12-29 19:42:41
box2d/-2021-12-29 19:42:41
boost-defaults/-2021-12-29 19:42:40
boost1.74/-2021-12-29 19:42:40
boolstuff/-2021-12-29 19:42:33
boinc/-2021-12-29 19:42:33
bobcat/-2021-12-29 19:42:32
bogl/-2021-12-29 19:42:32
bmusb/-2021-12-29 19:42:32
blitz++/-2021-12-29 19:42:29
bliss/-2021-12-29 19:42:29
blis/-2021-12-29 19:42:28
bison/-2021-12-29 19:42:24
biometric-authentication/-2021-12-29 19:42:24
biococoa/-2021-12-29 19:42:23
biniou/-2021-12-29 19:42:23
bin-prot/-2021-12-29 19:42:22
bigint/-2021-12-29 19:42:22
benchmark/-2021-12-29 19:42:21
bglibs/-2021-12-29 19:42:21
ben/-2021-12-29 19:42:21
bibutils/-2021-12-29 19:42:21
biblesync/-2021-12-29 19:42:21
belr/-2021-12-29 19:42:20
belle-sip/-2021-12-29 19:42:20
belcard/-2021-12-29 19:42:20
bcg729/-2021-12-29 19:42:19
buddy/-2021-12-29 19:42:19
bbhash/-2021-12-29 19:42:19
bctoolbox/-2021-12-29 19:42:19
bambamc/-2021-12-29 19:42:17
bart/-2021-12-29 19:42:17
bamtools/-2021-12-29 19:42:17
bamf/-2021-12-29 19:42:17
babl/-2021-12-29 19:42:16
breeze/-2021-12-29 19:41:12
bgoffice/-2021-12-29 19:39:42
breeze-grub/-2021-12-29 19:38:58
bfm/-2021-12-29 19:36:28
bsd-finger/-2021-12-29 19:32:36
bc/-2021-12-29 19:30:54
bytes-circle/-2021-12-29 19:28:50
bzflag/-2021-12-29 19:28:50
byacc/-2021-12-29 19:28:50
byacc-j/-2021-12-29 19:28:50
byzanz/-2021-12-29 19:28:50
bygfoot/-2021-12-29 19:28:50
bustools/-2021-12-29 19:28:49
buthead/-2021-12-29 19:28:49
bvi/-2021-12-29 19:28:49
bwm-ng/-2021-12-29 19:28:49
bwctl/-2021-12-29 19:28:49
butt/-2021-12-29 19:28:49
bwbasic/-2021-12-29 19:28:49
bochs/-2021-12-29 19:28:49
buzztrax/-2021-12-29 19:28:49
bwbar/-2021-12-29 19:28:49
butteraugli/-2021-12-29 19:28:49
burrow/-2021-12-29 19:28:48
bustle/-2021-12-29 19:28:48
burgerspace/-2021-12-29 19:28:41
burp/-2021-12-29 19:28:41
bumblebee/-2021-12-29 19:28:41
bup/-2021-12-29 19:28:41
bumprace/-2021-12-29 19:28:41
bully/-2021-12-29 19:28:40
buffer/-2021-12-29 19:28:40
buici-clock/-2021-12-29 19:28:40
bugsquish/-2021-12-29 19:28:40
budgie-extras/-2021-12-29 19:28:40
build-essential/-2021-12-29 19:28:40
buildapp/-2021-12-29 19:28:40
buildtorrent/-2021-12-29 19:28:40
budgie-indicator-applet/-2021-12-29 19:28:39
btscanner/-2021-12-29 19:28:38
bubblewrap/-2021-12-29 19:28:38
btrfs-compsize/-2021-12-29 19:28:38
btyacc/-2021-12-29 19:28:38
bucklespring/-2021-12-29 19:28:38
budgie-desktop-view/-2021-12-29 19:28:38
bti/-2021-12-29 19:28:38
bsd-mailx/-2021-12-29 19:28:37
bs2b-ladspa/-2021-12-29 19:28:37
bsdiff/-2021-12-29 19:28:37
btcheck/-2021-12-29 19:28:37
btanks/-2021-12-29 19:28:37
bs1770gain/-2021-12-29 19:28:37
bspwm/-2021-12-29 19:28:37
btag/-2021-12-29 19:28:37
bsdgames/-2021-12-29 19:28:37
btfs/-2021-12-29 19:28:37
bristol/-2021-12-29 19:28:36
brp-pacu/-2021-12-29 19:28:36
bruteforce-salted-openssl/-2021-12-29 19:28:36
bruteforce-luks/-2021-12-29 19:28:36
brutefir/-2021-12-29 19:28:36
bruteforce-wallet/-2021-12-29 19:28:36
briquolo/-2021-12-29 19:28:36
bro-aux/-2021-12-29 19:28:36
brutalchess/-2021-12-29 19:28:36
breeze-gtk/-2021-12-29 19:28:35
brig/-2021-12-29 19:28:35
brewtarget/-2021-12-29 19:28:35
brightd/-2021-12-29 19:28:35
brightnessctl/-2021-12-29 19:28:35
brickos/-2021-12-29 19:28:35
bridge-utils/-2021-12-29 19:28:35
braillefont/-2021-12-29 19:28:34
bppphyview/-2021-12-29 19:28:34
bpm-tools/-2021-12-29 19:28:34
bpftrace/-2021-12-29 19:28:34
brainparty/-2021-12-29 19:28:34
brandy/-2021-12-29 19:28:34
braa/-2021-12-29 19:28:34
bppsuite/-2021-12-29 19:28:34
bplay/-2021-12-29 19:28:34
bowtie/-2021-12-29 19:28:33
bowtie2/-2021-12-29 19:28:33
boxshade/-2021-12-29 19:28:33
boxbackup/-2021-12-29 19:28:33
bovo/-2021-12-29 19:28:33
boxes/-2021-12-29 19:28:33
boswars/-2021-12-29 19:28:32
bossa/-2021-12-29 19:28:32
bosixnet/-2021-12-29 19:28:32
bosh/-2021-12-29 19:28:32
botch/-2021-12-29 19:28:32
bottlerocket/-2021-12-29 19:28:32
bonnie++/-2021-12-29 19:28:31
booth/-2021-12-29 19:28:31
bopm/-2021-12-29 19:28:31
bootpc/-2021-12-29 19:28:31
boohu/-2021-12-29 19:28:31
borgbackup/-2021-12-29 19:28:31
bootp/-2021-12-29 19:28:31
boomaga/-2021-12-29 19:28:31
bomstrip/-2021-12-29 19:28:31
boolector/-2021-12-29 19:28:31
bolt-lmm/-2021-12-29 19:28:30
bogofilter/-2021-12-29 19:28:30
bomber/-2021-12-29 19:28:30
bolt/-2021-12-29 19:28:30
bombardier/-2021-12-29 19:28:30
boinctui/-2021-12-29 19:28:30
bomberclone/-2021-12-29 19:28:30
boats/-2021-12-29 19:28:29
bnfc/-2021-12-29 19:28:29
bmf/-2021-12-29 19:28:29
bmon/-2021-12-29 19:28:29
bluez-tools/-2021-12-29 19:28:29
bmake/-2021-12-29 19:28:29
blueranger/-2021-12-29 19:28:28
blueman/-2021-12-29 19:28:28
bluelog/-2021-12-29 19:28:28
bluefish/-2021-12-29 19:28:28
bluemon/-2021-12-29 19:28:28
bluedevil/-2021-12-29 19:28:27
blop/-2021-12-29 19:28:27
bls-standalone/-2021-12-29 19:28:27
blocks-of-the-undead/-2021-12-29 19:28:24
blobby/-2021-12-29 19:28:24
bloboats/-2021-12-29 19:28:24
blockattack/-2021-12-29 19:28:24
blktrace/-2021-12-29 19:28:24
blockout2/-2021-12-29 19:28:24
blobwars/-2021-12-29 19:28:24
blobandconquer/-2021-12-29 19:28:24
blinken/-2021-12-29 19:28:23
blkreplay/-2021-12-29 19:28:23
blktool/-2021-12-29 19:28:23
blepvco/-2021-12-29 19:28:23
bitwise/-2021-12-29 19:28:22
bittwist/-2021-12-29 19:28:22
bitstormlite/-2021-12-29 19:28:22
blender/-2021-12-29 19:28:22
blasr/-2021-12-29 19:28:22
black-box/-2021-12-29 19:28:22
blastem/-2021-12-29 19:28:22
blahtexml/-2021-12-29 19:28:22
bitlbee-mastodon/-2021-12-29 19:28:21
bist/-2021-12-29 19:28:21
bitseq/-2021-12-29 19:28:21
bitmeter/-2021-12-29 19:28:21
bisonc++/-2021-12-29 19:28:21
bitshuffle/-2021-12-29 19:28:21
bitlbee-facebook/-2021-12-29 19:28:21
bison++/-2021-12-29 19:28:21
bitlbee/-2021-12-29 19:28:21
birthday/-2021-12-29 19:28:20
bird/-2021-12-29 19:28:20
birdfont/-2021-12-29 19:28:20
birdtray/-2021-12-29 19:28:20
bip/-2021-12-29 19:28:20
binutils-z80/-2021-12-29 19:28:19
bio-eagle/-2021-12-29 19:28:19
binutils-xtensa-lx106/-2021-12-29 19:28:19
bio-rainbow/-2021-12-29 19:28:19
biobambam2/-2021-12-29 19:28:19
binutils-riscv64-unknown-elf/-2021-12-29 19:28:12
binutils-mipsen/-2021-12-29 19:28:06
binutils-mingw-w64/-2021-12-29 19:27:51
binutils-m68hc1x/-2021-12-29 19:27:50
binutils-bpf/-2021-12-29 19:27:45
binutils-djgpp/-2021-12-29 19:27:45
binutils-h8300-hms/-2021-12-29 19:27:45
binutils-arm-none-eabi/-2021-12-29 19:27:44
binutils-avr/-2021-12-29 19:27:44
biniax2/-2021-12-29 19:27:39
binfmt-support/-2021-12-29 19:27:39
bind-dyndb-ldap/-2021-12-29 19:27:39
binfmtc/-2021-12-29 19:27:39
bino/-2021-12-29 19:27:39
bing/-2021-12-29 19:27:39
binpac/-2021-12-29 19:27:39
bindechexascii/-2021-12-29 19:27:39
binkd/-2021-12-29 19:27:39
bindfs/-2021-12-29 19:27:39
binaryen/-2021-12-29 19:27:38
biff/-2021-12-29 19:27:38
bifcl/-2021-12-29 19:27:38
bilibop/-2021-12-29 19:27:38
biloba/-2021-12-29 19:27:38
bijiben/-2021-12-29 19:27:38
binclock/-2021-12-29 19:27:38
billard-gl/-2021-12-29 19:27:38
bidiv/-2021-12-29 19:27:38
bibletime/-2021-12-29 19:27:37
bibledit/-2021-12-29 19:27:37
bibcursed/-2021-12-29 19:27:37
bibledit-cloud/-2021-12-29 19:27:37
bibtexconv/-2021-12-29 19:27:37
bgpq4/-2021-12-29 19:27:37
biboumi/-2021-12-29 19:27:37
bibclean/-2021-12-29 19:27:37
bidentd/-2021-12-29 19:27:37
bibtool/-2021-12-29 19:27:37
bibtex2html/-2021-12-29 19:27:37
bfs/-2021-12-29 19:27:36
bfbtester/-2021-12-29 19:27:36
betaradio/-2021-12-29 19:27:36
berusky/-2021-12-29 19:27:36
between/-2021-12-29 19:27:36
bettercap/-2021-12-29 19:27:36
bgpdump/-2021-12-29 19:27:36
bgpq3/-2021-12-29 19:27:36
berusky2/-2021-12-29 19:27:36
berate-ap/-2021-12-29 19:27:35
berkeley-abc/-2021-12-29 19:27:35
berkeley-express/-2021-12-29 19:27:35
belenios/-2021-12-29 19:27:35
beignet/-2021-12-29 19:27:34
beef/-2021-12-29 19:27:34
bedtools/-2021-12-29 19:27:34
beep/-2021-12-29 19:27:34
bed/-2021-12-29 19:27:34
bedops/-2021-12-29 19:27:34
bchunk/-2021-12-29 19:27:33
bdf2sfd/-2021-12-29 19:27:33
beanstalkd/-2021-12-29 19:27:33
bdfresize/-2021-12-29 19:27:33
bcftools/-2021-12-29 19:27:33
bcron/-2021-12-29 19:27:33
bcpp/-2021-12-29 19:27:33
bdbvu/-2021-12-29 19:27:33
beav/-2021-12-29 19:27:33
beads/-2021-12-29 19:27:33
bbrun/-2021-12-29 19:27:32
bbmail/-2021-12-29 19:27:32
bcal/-2021-12-29 19:27:32
bbe/-2021-12-29 19:27:32
bbtime/-2021-12-29 19:27:32
bcachefs-tools/-2021-12-29 19:27:32
bbpager/-2021-12-29 19:27:32
bcache-tools/-2021-12-29 19:27:32
bcalm/-2021-12-29 19:27:32
bbswitch/-2021-12-29 19:27:32
bbmap/-2021-12-29 19:27:32
baycomusb/-2021-12-29 19:27:31
bb/-2021-12-29 19:27:31
bastet/-2021-12-29 19:27:31
basket/-2021-12-29 19:27:31
batmon.app/-2021-12-29 19:27:31
bazel-bootstrap/-2021-12-29 19:27:31
basic256/-2021-12-29 19:27:31
baycomepp/-2021-12-29 19:27:31
battery-stats/-2021-12-29 19:27:31
batmand/-2021-12-29 19:27:31
basez/-2021-12-29 19:27:30
bart-view/-2021-12-29 19:27:30
barrage/-2021-12-29 19:27:30
base-passwd/-2021-12-29 19:27:30
barnowl/-2021-12-29 19:27:30
baresip/-2021-12-29 19:27:30
bam/-2021-12-29 19:27:29
bar/-2021-12-29 19:27:29
bandage/-2021-12-29 19:27:29
bambootracker/-2021-12-29 19:27:29
bandwidthd/-2021-12-29 19:27:29
barcode/-2021-12-29 19:27:29
baobab/-2021-12-29 19:27:29
ballerburg/-2021-12-29 19:27:28
ballz/-2021-12-29 19:27:28
balsa/-2021-12-29 19:27:28
bali-phy/-2021-12-29 19:27:28
balboa/-2021-12-29 19:27:28
baitfisher/-2021-12-29 19:27:28
backuppc-rsync/-2021-12-29 19:27:26
bacula/-2021-12-29 19:27:26
bagel/-2021-12-29 19:27:26
backuppc/-2021-12-29 19:27:25
babeld/-2021-12-29 19:27:25
bterm-unifont/-2021-12-29 19:25:59
base-installer/-2021-12-29 19:25:59
bulk-media-downloader/-2021-12-29 19:23:19
br.ispell/-2021-12-29 19:23:15
bidiui/-2021-12-29 19:19:30
boot/-2021-12-29 19:08:58
buildstream/-2021-12-29 19:02:33
buildbot/-2021-12-29 19:02:33
beautifulsoup4/-2021-12-29 19:02:32
btchip-python/-2021-12-29 19:02:32
branca/-2021-12-29 19:02:31
breathe/-2021-12-29 19:02:31
braceexpand/-2021-12-29 19:02:31
blockdiag/-2021-12-29 19:02:29
blends/-2021-12-29 19:02:28
blessings/-2021-12-29 19:02:28
blinker/-2021-12-29 19:02:28
biomaj3-cli/-2021-12-29 19:02:27
biomaj3/-2021-12-29 19:02:27
biomaj3-core/-2021-12-29 19:02:27
biomaj3-user/-2021-12-29 19:02:27
biomaj3-download/-2021-12-29 19:02:27
biomaj3-process/-2021-12-29 19:02:27
biomaj3-daemon/-2021-12-29 19:02:27
biomaj3-zipkin/-2021-12-29 19:02:27
bernhard/-2021-12-29 19:02:26
betamax/-2021-12-29 19:02:26
billiard/-2021-12-29 19:02:26
bidict/-2021-12-29 19:02:26
behave/-2021-12-29 19:02:26
beaker/-2021-12-29 19:02:26
binwalk/-2021-12-29 19:02:26
binoculars/-2021-12-29 19:02:26
bibtexparser/-2021-12-29 19:02:26
binaryornot/-2021-12-29 19:02:26
berrynet/-2021-12-29 19:02:26
barectf/-2021-12-29 19:02:25
barman/-2021-12-29 19:02:25
barbican/-2021-12-29 19:02:25
bandit/-2021-12-29 19:02:25
bdist-nsi/-2021-12-29 19:02:25
backoff/-2021-12-29 19:02:24
babelfish/-2021-12-29 19:02:24
black/-2021-12-29 19:00:44
bignumber.js/-2021-12-29 18:53:22
backbone/-2021-12-29 18:53:21
blockui/-2021-12-29 18:28:46
browser-request/-2021-12-29 18:28:41
byteman/-2021-12-29 18:15:19
bytecode/-2021-12-29 18:15:18
byte-buddy/-2021-12-29 18:15:18
build-helper-maven-plugin/-2021-12-29 18:15:10
bsh/-2021-12-29 18:15:09
bridge-method-injector/-2021-12-29 18:15:08
brailleutils/-2021-12-29 18:15:07
boogie/-2021-12-29 18:14:56
boilerpipe/-2021-12-29 18:14:56
bitstream/-2021-12-29 18:14:50
biojava4-live/-2021-12-29 18:14:49
biojava-live/-2021-12-29 18:14:49
bioperl-run/-2021-12-29 18:14:47
bioperl/-2021-12-29 18:14:47
bindex/-2021-12-29 18:14:45
bigdoc/-2021-12-29 18:14:44
bidi-clojure/-2021-12-29 18:14:44
bsaf/-2021-12-29 18:14:43
beansbinding/-2021-12-29 18:14:41
beckon-clojure/-2021-12-29 18:14:41
bouncycastle/-2021-12-29 18:14:40
batik/-2021-12-29 18:14:39
bcel/-2021-12-29 18:14:39
barclay/-2021-12-29 18:14:37
backward-cpp/-2021-12-29 18:14:35
backport9/-2021-12-29 18:14:34
blag-fortune/-2021-12-29 17:56:32
bm-el/-2021-12-29 17:50:29
browse-kill-ring-el/-2021-12-29 17:50:29
beginend-el/-2021-12-29 17:50:29
boxquote-el/-2021-12-29 17:50:29
bongo/-2021-12-29 17:50:29
beacon/-2021-12-29 17:50:28
bar-cursor-el/-2021-12-29 17:50:28
build-essential-mipsen/-2021-12-29 17:47:18
bordeaux-threads/-2021-12-29 17:45:25
bzrtools/-2021-12-29 17:44:16
bzr-git/-2021-12-29 17:44:16
bzr-email/-2021-12-29 17:44:16
bzr/-2021-12-29 17:44:16
bzr-upload/-2021-12-29 17:44:16
bzr-fastimport/-2021-12-29 17:44:16
bzr-loom/-2021-12-29 17:44:16
bzr-stats/-2021-12-29 17:44:16
bzr-builddeb/-2021-12-29 17:44:15
byobu/-2021-12-29 17:44:13
bwidget/-2021-12-29 17:44:12
bundlewrap/-2021-12-29 17:44:11
busco/-2021-12-29 17:44:11
buku/-2021-12-29 17:44:10
bugwarrior/-2021-12-29 17:44:09
bugz/-2021-12-29 17:44:09
bucardo/-2021-12-29 17:44:06
btrfsmaintenance/-2021-12-29 17:44:05
btest/-2021-12-29 17:44:05
btrfs-heatmap/-2021-12-29 17:44:05
btrbk/-2021-12-29 17:44:05
breezy-loom/-2021-12-29 17:44:03
bsfilter/-2021-12-29 17:44:03
breezy-debian/-2021-12-29 17:44:03
brutespray/-2021-12-29 17:44:02
breeze-icons/-2021-12-29 17:44:00
brag/-2021-12-29 17:43:58
braillegraph/-2021-12-29 17:43:58
bpython/-2021-12-29 17:43:57
bpytop/-2021-12-29 17:43:57
boxer/-2021-12-29 17:43:56
boxer-data/-2021-12-29 17:43:56
bouncy/-2021-12-29 17:43:55
borgmatic/-2021-12-29 17:43:52
boot-info-script/-2021-12-29 17:43:51
bookletimposer/-2021-12-29 17:43:51
bootcd/-2021-12-29 17:43:51
bodr/-2021-12-29 17:43:48
bnd/-2021-12-29 17:43:47
bmap-tools/-2021-12-29 17:43:47
bmt/-2021-12-29 17:43:47
bmagic/-2021-12-29 17:43:46
bluebird-gtk-theme/-2021-12-29 17:43:44
blosxom/-2021-12-29 17:43:43
blhc/-2021-12-29 17:43:37
bless/-2021-12-29 17:43:37
bleachbit/-2021-12-29 17:43:36
blackbox-themes/-2021-12-29 17:43:36
blazeblogger/-2021-12-29 17:43:36
blackbird-gtk-theme/-2021-12-29 17:43:35
biosyntax/-2021-12-29 17:43:33
bio-vcf/-2021-12-29 17:43:32
biogenesis/-2021-12-29 17:43:32
bio-tradis/-2021-12-29 17:43:32
binstats/-2021-12-29 17:42:55
biglybt/-2021-12-29 17:42:52
big-cursor/-2021-12-29 17:42:52
biber/-2021-12-29 17:42:48
biabam/-2021-12-29 17:42:48
betterlockscreen/-2021-12-29 17:42:47
bettercap-caplets/-2021-12-29 17:42:47
bettercap-ui/-2021-12-29 17:42:47
bf-utf/-2021-12-29 17:42:47
bgoffice-computer-terms/-2021-12-29 17:42:47
berusky2-data/-2021-12-29 17:42:32
berusky-data/-2021-12-29 17:42:32
beneath-a-steel-sky/-2021-12-29 17:42:29
beets/-2021-12-29 17:42:28
beast2-mcmc/-2021-12-29 17:42:26
beagle/-2021-12-29 17:42:25
bdebstrap/-2021-12-29 17:42:24
bdii/-2021-12-29 17:42:24
bd/-2021-12-29 17:42:24
bbdb3/-2021-12-29 17:42:22
bbdb/-2021-12-29 17:42:22
bats/-2021-12-29 17:42:21
batalert/-2021-12-29 17:42:21
bash-completion/-2021-12-29 17:42:20
barrnap/-2021-12-29 17:42:20
basex/-2021-12-29 17:42:20
barbican-tempest-plugin/-2021-12-29 17:42:19
bambam/-2021-12-29 17:42:17
bamkit/-2021-12-29 17:42:17
bacula-doc/-2021-12-29 17:42:15
backupninja/-2021-12-29 17:42:14
backup2l/-2021-12-29 17:42:14
backupchecker/-2021-12-29 17:42:14
backup-manager/-2021-12-29 17:42:14
backdoor-factory/-2021-12-29 17:42:13
b374k/-2021-12-29 17:42:13
backblaze-b2/-2021-12-29 17:42:13
b4/-2021-12-29 17:42:13